Location: ????????
(55.8351°N, 38.7040°E)
Time: 02:42:36
(UTC+00:00)

ATLAS 2AS CENTAUR R/B - Pass Details

Date: 14 April 2024
Orbit: 1016 x 1195 km, 63.7° (Epoch: 28 May)

Event Time Altitude Azimuth Distance (km) Brightness Sun altitude
Rises 01:10:25 0° 191° (SSW) 4,055 5.3 -9.8°
Reaches altitude 10° 01:13:23 10° 184° (S) 3,079 4.8 -9.5°
Maximum altitude 01:19:58 37° 120° (ESE) 1,707 4.1 -8.7°
Drops below altitude 10° 01:26:20 10° 57° (ENE) 2,985 6.8 -7.9°
Sets 01:29:10 0° 49° (NE) 3,918 7.7 -7.6°
